Regional Weather Roundup
Issued by NWS

Home | Current Version | Previous Version | Text Only | Print | Product List | Glossary Off
Versions: 1 2 3 4 5 6 7 8 9 10 11 12 13 14 15 16 17 18 19 20 21 22 23 24 25 26 27 28 29 30 31 32 33 34 35 36 37 38 39 40 41 42 43 44 45 46 47 48 49 50

997
ASUS44 KLIX 222201
RWRLA
LOUISIANA WEATHER ROUNDUP
NATIONAL WEATHER SERVICE NEW ORLEANS LA
500 PM CDT FRI AUG 22 2014

NOTE: "FAIR" INDICATES FEW OR NO CLOUDS BELOW 12,000 FEET WITH NO
      SIGNIFICANT WEATHER AND/OR OBSTRUCTIONS TO VISIBILITY.
      SKY/WX - SKY CONDITION AND SIGNIFICANT WEATHER.
      TMP - AIR TEMPERATURE.    DP   - DEWPOINT TEMPERATURE.
      RH  - RELATIVE HUMIDITY.  PRES - PRESSURE.
      HX  - HEAT INDEX.         WCI  - WIND CHILL INDEX.

*  THESE STATIONS ARE NOT NWS OR FAA STATIONS AND ARE NOT UNDER
   NWS QUALITY CONTROL.

LAZ040-048-061>063-065-066-069-222300-
SOUTHEAST LOUISIANA

CITY           SKY/WX    TMP DP  RH WIND       PRES   REMARKS
N.O. AUDUBON     N/A     96  69  41 MISG        N/A  HX 101
N.O. INTL ARPT MOSUNNY   94  63  35 CALM      30.03F HX  95
N.O. LAKEFRONT MOSUNNY   91  73  55 W5        30.03F HX  99
N.O. DOWNTOWN* FAIR      95  66  38 NE3       30.03F HX  98
SLIDELL        SUNNY     94  70  45 CALM      30.01F HX 100
BATON ROUGE    SUNNY     94  72  48 NW5       30.03F HX 102
BOOTHVILLE     SUNNY     91  73  55 NE5       30.04F HX  99
BELLE CHASSE   PTSUNNY   93  69  45 E6        30.02F HX  98
BOGALUSA*      FAIR      96  70  42 NW5       30.03F HX 102
GALLIANO*      NOT AVBL
NEW ROADS*     FAIR      89  75  63 N3        30.04S HX  99
GONZALES*      FAIR      92  76  58 CALM      30.02F HX 104
HAMMOND*       NOT AVBL
HOUMA*         MOSUNNY   93  70  46 NE5       30.03F HX  99
PORT FOURCHON* CLEAR     91  73  55 E8        30.05F HX 100

$$

LAZ041-044-053-054-222300-
SOUTHWEST LOUISIANA

CITY           SKY/WX    TMP DP  RH WIND       PRES   REMARKS
LAKE CHARLES   MOSUNNY   92  74  55 SW10      30.02F THUNDER HX 101
LAFAYETTE      SUNNY     94  75  54 NE5       30.03F HX 105
PATTERSON      MOSUNNY   90  75  62 NW3       30.06F HX 100
SALT POINT       N/A     93  77  59 VRB3      30.03F HX 107
NEW IBERIA     MOSUNNY   96  74  48 NE6       30.03F HX 107
CHENAULT AIRPK MOSUNNY   93  72  49 W3        30.03F HX 100

$$

LAZ027-028-222300-
CENTRAL LOUISIANA

CITY           SKY/WX    TMP DP  RH WIND       PRES   REMARKS
FORT POLK      SUNNY     91  70  49 CALM      30.03F HX  96
ALEXANDRIA INT SUNNY     93  72  50 SE5       30.01F HX 101
ALEXANDRIA     SUNNY     93  72  50 CALM      30.03F HX 101

$$

LAZ001-002-222300-
NORTHWEST LOUISIANA

CITY           SKY/WX    TMP DP  RH WIND       PRES   REMARKS
SHREVEPORT     SUNNY     96  66  37 S7        30.00F HX  99
BARKSDALE AFB  SUNNY     97  67  37 VRB7      30.00F HX 101
DTN SHREVEPORT SUNNY     96  66  37 W5        30.00F HX  99

$$

LAZ014-016-222300-
NORTHEAST LOUISIANA

CITY           SKY/WX    TMP DP  RH WIND       PRES   REMARKS
MONROE         SUNNY     94  67  41 SW7       30.03F HX  97
TALLULAH       SUNNY     93  70  46 S5        30.03F HX  99

$$




USA.gov is the U.S. government's official web portal to all federal, state and local government web resources and services.